This is the latest recevied weather packets stored in our database for station/object WX4FUN-13. If no packets are shown the sender has not sent any weather packets the latest 10 day(s).
| Time | Temp. | Humidity | Pressure | Rain* | Wind** | Luminosity | Snow |
|---|---|---|---|---|---|---|---|
| 1777803452 | 3.33° C | 73% | 1009.4 hPa | 0 mm | - | 19 W/m² | - |
| 1777802853 | 3.33° C | 72% | 1009.4 hPa | 0 mm | - | 12 W/m² | - |
| 1777802253 | 3.33° C | 71% | 1009.3 hPa | 0 mm | - | 7 W/m² | - |
| 1777801653 | 3.89° C | 71% | 1009.4 hPa | 0 mm | - | 3 W/m² | - |
| 1777801052 | 3.89° C | 70% | 1009.6 hPa | 0 mm | - | 0 W/m² | - |
| 1777800453 | 4.44° C | 68% | 1009.6 hPa | 0 mm | - | 0 W/m² | - |
| 1777799853 | 4.44° C | 68% | 1009.6 hPa | 0 mm | - | 0 W/m² | - |
| 1777799255 | 4.44° C | 68% | 1009.7 hPa | 0 mm | - | 0 W/m² | - |
| 1777798655 | 4.44° C | 68% | 1009.9 hPa | 0 mm | - | 0 W/m² | - |
| 1777798056 | 5° C | 67% | 1009.8 hPa | 0 mm | - | 0 W/m² | - |
| 1777797454 | 5° C | 65% | 1009.8 hPa | 0 mm | - | 0 W/m² | - |
| 1777796842 | 5° C | 65% | 1010 hPa | 0 mm | - | 0 W/m² | - |
| 1777796242 | 5.56° C | 64% | 1010.1 hPa | 0 mm | - | 0 W/m² | - |
| 1777795641 | 5.56° C | 61% | 1010.2 hPa | 0 mm | - | 0 W/m² | - |
| 1777795040 | 6.11° C | 61% | 1010.1 hPa | 0 mm | - | 0 W/m² | - |
| 1777794427 | 6.11° C | 61% | 1010 hPa | 0 mm | - | 0 W/m² | - |
| 1777793826 | 6.11° C | 59% | 1010.3 hPa | 0 mm | - | 0 W/m² | - |
| 1777793228 | 6.11° C | 59% | 1010.4 hPa | 0 mm | - | 0 W/m² | - |
| 1777792627 | 6.11° C | 59% | 1010.5 hPa | 0 mm | - | 0 W/m² | - |
| 1777792026 | 6.67° C | 57% | 1010.5 hPa | 0 mm | - | 0 W/m² | - |
| 1777791428 | 6.67° C | 57% | 1010.5 hPa | 0 mm | - | 0 W/m² | - |
| 1777790813 | 6.67° C | 57% | 1010.6 hPa | 0 mm | - | 0 W/m² | - |
| 1777790214 | 6.67° C | 56% | 1010.8 hPa | 0 mm | - | 0 W/m² | - |
| 1777789600 | 6.67° C | 56% | 1010.8 hPa | 0 mm | - | 0 W/m² | - |
| 1777788998 | 7.22° C | 55% | 1011.1 hPa | 0 mm | - | 0 W/m² | - |
* Rain latest hour (hover to see other rain measurements)
** Current wind speed in m/s (hover to see current wind gust speed)